{"data":{"norad_id":63383,"intl_designator":"2025-063W","name":"STARLINK-33748","alt_names":[],"object_type":"PAYLOAD","status":"ACTIVE","operator":null,"country":"US","launch_date":"2025-03-26","launch_site_code":"AFWTR","launch_vehicle":null,"mission":null,"orbit_class":"UNKNOWN","rcs_meters":null,"size_class":null,"mass_kg":null,"dimensions":null,"purposes":["comms"],"wikipedia_slug":null,"has_3d_model":false,"image_url":null,"decayed_at":null,"tle_current":{"epoch":"2026-05-25T04:51:14.440608Z","epoch_age_seconds":53735,"freshness":"FRESH","line1":"1 63383U 25063W   26145.20225047  .00034621  00000+0  11752-2 0  9992","line2":"2 63383  53.1574  67.7330 0001169  98.1353 261.9780 15.30210485 66321","mean_motion":15.30210485,"eccentricity":0.0001169,"inclination_deg":53.1574,"raan_deg":67.733,"arg_perigee_deg":98.1353,"mean_anomaly_deg":261.978,"bstar":0.0011752,"rev_number":6632,"period_min":94.104700896753,"perigee_km":474.38261008079,"apogee_km":475.98491647524,"semimajor_km":6853.320763278,"source":"CELESTRAK","updated_at":"2026-05-25T13:38:19.965841Z"}}}